TimeCEST,TemperatureF,Dew PointF,Humidity,Sea Level PressureIn,VisibilityMPH,Wind Direction,Wind SpeedMPH,Gust SpeedMPH,PrecipitationIn,Events,Conditions,WindDirDegrees,DateUTC
12:00 AM,77.0,66.2,69,30.01,-9999.0,ENE,4.6,-,N/A,,Clear,70,2013-07-19 22:00:00
12:30 AM,75.2,68.0,78,29.98,-9999.0,ENE,4.6,-,N/A,,Clear,70,2013-07-19 22:30:00
1:00 AM,75.2,68.0,78,29.98,-9999.0,NNE,3.5,-,N/A,,Clear,20,2013-07-19 23:00:00
1:30 AM,73.4,66.2,78,29.98,-9999.0,NE,2.3,-,N/A,,Clear,40,2013-07-19 23:30:00
2:00 AM,72,65,72,29.98,16,Calm,Calm,,,,Clear,,2013-07-20 00:00:00
2:00 AM,73.4,64.4,73,29.98,-9999.0,Variable,2.3,-,N/A,,Clear,0,2013-07-20 00:00:00
2:30 AM,71.6,64.4,78,29.98,-9999.0,Variable,1.2,-,N/A,,Clear,0,2013-07-20 00:30:00
3:00 AM,71.6,64.4,78,29.95,-9999.0,Calm,Calm,-,N/A,,Clear,0,2013-07-20 01:00:00
3:30 AM,69.8,64.4,83,29.95,-9999.0,NNE,2.3,-,N/A,,Clear,30,2013-07-20 01:30:00
4:00 AM,69.8,62.6,78,29.95,-9999.0,Variable,1.2,-,N/A,,Clear,0,2013-07-20 02:00:00
4:30 AM,71.6,66.2,83,29.95,-9999.0,ENE,10.4,-,N/A,,Clear,70,2013-07-20 02:30:00
5:00 AM,71.6,66.2,83,29.95,-9999.0,NE,4.6,-,N/A,,Clear,50,2013-07-20 03:00:00
5:30 AM,69.8,64.4,83,29.95,-9999.0,ENE,9.2,-,N/A,,Clear,60,2013-07-20 03:30:00
6:00 AM,69.8,66.2,88,29.95,-9999.0,NE,4.6,-,N/A,,Clear,40,2013-07-20 04:00:00
6:30 AM,68.0,64.4,88,29.95,-9999.0,NE,10.4,-,N/A,,Clear,50,2013-07-20 04:30:00
7:00 AM,68.0,62.6,83,29.92,-9999.0,NNE,8.1,-,N/A,,Clear,30,2013-07-20 05:00:00
7:30 AM,73.4,62.6,69,29.95,-9999.0,NE,9.2,-,N/A,,Clear,50,2013-07-20 05:30:00
8:00 AM,74,62,56,29.95,12,ENE,8.1,,,,Scattered Clouds,60,2013-07-20 06:00:00
8:00 AM,73.4,62.6,69,29.95,-9999.0,NE,11.5,-,N/A,,Clear,50,2013-07-20 06:00:00
8:30 AM,77.0,68.0,74,29.95,-9999.0,ENE,10.4,-,N/A,,Clear,60,2013-07-20 06:30:00
9:00 AM,80.6,71.6,74,29.95,6.2,ENE,12.7,-,N/A,,Partly Cloudy,60,2013-07-20 07:00:00
9:30 AM,82.4,71.6,70,29.98,6.2,ENE,8.1,-,N/A,,Partly Cloudy,70,2013-07-20 07:30:00
10:00 AM,84.2,68.0,58,29.98,-9999.0,ENE,9.2,-,N/A,,Clear,60,2013-07-20 08:00:00
10:30 AM,84.2,68.0,58,29.95,-9999.0,NE,11.5,-,N/A,,Clear,50,2013-07-20 08:30:00
11:00 AM,87.8,68.0,52,29.95,-9999.0,ENE,11.5,-,N/A,,Clear,60,2013-07-20 09:00:00
11:30 AM,87.8,66.2,49,29.95,-9999.0,ENE,12.7,-,N/A,,Clear,60,2013-07-20 09:30:00
12:00 PM,87.8,64.4,46,29.95,-9999.0,NE,11.5,-,N/A,,Clear,50,2013-07-20 10:00:00
12:30 PM,93.2,62.6,36,29.95,-9999.0,East,9.2,-,N/A,,Clear,100,2013-07-20 10:30:00
1:00 PM,93.2,60.8,34,29.95,-9999.0,ENE,11.5,-,N/A,,Clear,70,2013-07-20 11:00:00
1:30 PM,95.0,60.8,32,29.95,-9999.0,East,11.5,-,N/A,,Clear,80,2013-07-20 11:30:00
2:00 PM,96.8,55.4,25,29.95,-9999.0,East,9.2,-,N/A,,Clear,90,2013-07-20 12:00:00
2:30 PM,96.8,51.8,22,29.92,-9999.0,East,9.2,-,N/A,,Clear,90,2013-07-20 12:30:00
3:00 PM,96.8,53.6,23,29.92,-9999.0,East,9.2,-,N/A,,Clear,100,2013-07-20 13:00:00
3:30 PM,96.8,53.6,23,29.92,-9999.0,East,8.1,-,N/A,,Clear,100,2013-07-20 13:30:00
4:00 PM,96.8,55.4,25,29.92,-9999.0,East,9.2,-,N/A,,Clear,100,2013-07-20 14:00:00
4:30 PM,96.8,55.4,25,29.92,-9999.0,East,10.4,-,N/A,,Clear,90,2013-07-20 14:30:00
5:00 PM,95.0,57.2,28,29.92,-9999.0,East,10.4,-,N/A,,Clear,100,2013-07-20 15:00:00
5:30 PM,95.0,57.2,28,29.92,-9999.0,East,12.7,-,N/A,,Clear,80,2013-07-20 15:30:00
6:00 PM,93.2,57.2,30,29.92,-9999.0,East,11.5,-,N/A,,Clear,90,2013-07-20 16:00:00
6:30 PM,93.2,57.2,30,29.92,-9999.0,East,10.4,-,N/A,,Clear,100,2013-07-20 16:30:00
7:00 PM,93.2,57.2,30,29.89,-9999.0,East,9.2,-,N/A,,Clear,100,2013-07-20 17:00:00
7:30 PM,91.4,57.2,31,29.89,-9999.0,East,10.4,-,N/A,,Clear,90,2013-07-20 17:30:00
8:00 PM,91,58,23,29.91,12,East,11.5,,,,,100,2013-07-20 18:00:00
8:00 PM,89.6,57.2,33,29.92,-9999.0,East,10.4,-,N/A,,Clear,90,2013-07-20 18:00:00
8:30 PM,89.6,57.2,33,29.92,-9999.0,East,8.1,-,N/A,,Clear,90,2013-07-20 18:30:00
9:00 PM,87.8,55.4,33,29.92,-9999.0,East,6.9,-,N/A,,Clear,90,2013-07-20 19:00:00
9:30 PM,84.2,59.0,42,29.95,-9999.0,ENE,6.9,-,N/A,,Clear,60,2013-07-20 19:30:00
10:00 PM,82.4,60.8,48,29.95,-9999.0,ENE,8.1,-,N/A,,Clear,60,2013-07-20 20:00:00
10:30 PM,80.6,64.4,58,29.98,-9999.0,ENE,10.4,-,N/A,,Clear,60,2013-07-20 20:30:00
11:00 PM,80.6,68.0,65,29.98,-9999.0,ENE,5.8,-,N/A,,Clear,70,2013-07-20 21:00:00
11:30 PM,78.8,68.0,69,29.98,-9999.0,ENE,6.9,-,N/A,,Clear,70,2013-07-20 21:30:00